Retour au catalogue

STARLINK-36454

ActifCommunicationsVLEO
NORAD 67470·PAYLOAD·🇺🇸 United States

Lancé Jan 14, 2026 depuis Cape Canaveral Space Force Station

Loading…

Prochains Passages (prochaines 24 heures)

TLE

FraisSource: CelesTrak SupGP

Époque: Sep 15, 2026, 03:53 UTC

1 67470C 26008AB  26258.16229167 -.00040707  00000+0 -14747-2 0  2589
2 67470  42.9995 214.9881 0001136 274.1777  15.0409 15.27593378    13

Suivez STARLINK-36454 en temps réel avec AllMySat

Download on the App Store